TimeEDT,TemperatureF,Dew PointF,Humidity,Sea Level PressureIn,VisibilityMPH,Wind Direction,Wind SpeedMPH,Gust SpeedMPH,PrecipitationIn,Events,Conditions,WindDirDegrees,DateUTC
2:53 AM,59.0,57.0,93,29.94,6.0,South,6.9,-,0.01,,Overcast,180,2012-10-23 06:53:00
3:53 AM,60.1,55.0,83,29.93,10.0,SSW,5.8,-,N/A,,Scattered Clouds,210,2012-10-23 07:53:00
4:53 AM,61.0,55.0,81,29.93,10.0,SW,8.1,-,N/A,,Overcast,220,2012-10-23 08:53:00
5:53 AM,60.1,54.0,80,29.94,10.0,SW,10.4,-,N/A,,Partly Cloudy,230,2012-10-23 09:53:00
6:53 AM,57.9,54.0,87,29.94,10.0,WSW,4.6,-,N/A,,Clear,250,2012-10-23 10:53:00
7:53 AM,59.0,53.1,81,29.95,10.0,West,4.6,-,N/A,,Clear,260,2012-10-23 11:53:00
8:53 AM,57.9,54.0,87,29.97,10.0,Calm,Calm,-,N/A,,Clear,0,2012-10-23 12:53:00
9:16 AM,59.0,55.4,88,29.98,10.0,Calm,Calm,-,N/A,,Mostly Cloudy,0,2012-10-23 13:16:00
9:53 AM,61.0,55.9,83,29.99,10.0,West,3.5,-,N/A,,Overcast,260,2012-10-23 13:53:00
10:53 AM,61.0,57.0,87,30.01,10.0,WSW,4.6,-,N/A,,Overcast,250,2012-10-23 14:53:00
11:53 AM,64.0,55.9,75,30.01,10.0,WSW,5.8,-,N/A,,Overcast,250,2012-10-23 15:53:00
12:33 PM,64.4,55.4,73,30.00,10.0,West,5.8,-,N/A,,Overcast,260,2012-10-23 16:33:00
1:53 PM,66.9,55.9,68,29.98,10.0,WSW,5.8,-,N/A,,Clear,250,2012-10-23 17:53:00
2:53 PM,69.1,57.0,65,29.95,10.0,WNW,8.1,-,N/A,,Clear,300,2012-10-23 18:53:00
3:53 PM,69.1,57.0,65,29.95,10.0,West,8.1,-,N/A,,Clear,270,2012-10-23 19:53:00
4:53 PM,68.0,59.0,73,29.97,10.0,SW,13.8,-,N/A,,Overcast,220,2012-10-23 20:53:00
5:53 PM,66.0,59.0,78,29.98,10.0,SW,10.4,-,N/A,,Mostly Cloudy,230,2012-10-23 21:53:00
7:53 PM,62.1,57.9,86,30.01,10.0,WSW,3.5,-,N/A,,Overcast,240,2012-10-23 23:53:00
8:00 PM,62.6,57.2,82,30.01,10.0,SW,4.6,-,N/A,,Overcast,230,2012-10-24 00:00:00
8:53 PM,61.0,57.9,90,30.01,10.0,WSW,3.5,-,N/A,,Mostly Cloudy,240,2012-10-24 00:53:00
9:53 PM,61.0,57.9,90,30.02,10.0,SW,4.6,-,N/A,,Overcast,220,2012-10-24 01:53:00
10:53 PM,60.1,57.0,90,30.03,10.0,SSW,3.5,-,N/A,,Mostly Cloudy,200,2012-10-24 02:53:00
11:53 PM,61.0,57.9,90,30.03,9.0,SSW,5.8,-,N/A,,Overcast,210,2012-10-24 03:53:00